HUMANITY STAR (43168 NORAD) Tracking and Keplerian Element Data

This shows tracking and keplerian element data for the satellite.

Feedback or suggestion? Click here.




ElementValue
Catalog43168
NameHUMANITY STAR
Epoch Orbit947
Epoch Day81.42604271
Epoch Year2018
RAAN78.1866
Inclination82.888
Eccentricity0.0005783
Argument of Perigee272.9878
Mean Anonmoly87.614
Mean Motion16.36378329
Decay Rate0.28808768
L11 43168U 18010F 18081.42604271 .28808768 -13411-5 35134-2 0 9997
L22 43168 82.8880 78.1866 0005783 272.9878 87.6140 16.36378329 9474

Live tracking and technical data element details for HUMANITY STAR (NORAD 43168). HUMANITY STAR can be tracked NOW for your location showing map with azimuth and elevation plus other details from your city location.

Track the satellite on the map from your city or location and see movement details for azimuth, elevation, latitude, longitude, range, height, and movement on the map or in text.







IsCatalogInMostPopularTable: catalog: 43168, numindb: 88
Update: records affected: 1



GetName: 43168 HUMANITY STAR

Hit Count: updated at: Sun, 15 Jul 2018 22:57:29 GMT